Tracking 18980 objects as of 20-Feb-2018
HD Live streaming from Space Station
objects crossing your sky now

FENGYUN 1C DEB

Track FENGYUN 1C DEB now!
10-day predictions


NORAD ID: 31182
Int'l Code: 1999-025BJL
Perigee: 845.4 km
Apogee: 879.3 km
Inclination: 98.8 °
Period: 102.0 minutes
Semi major axis: 7233 km
RCS: 0.0134 m2 (small)
Launch date: May 10, 1999
Source: People's Republic of China (PRC)
Launch site: Taiyaun Space Center, China (TSC)

Note: This is SATELLITE DEBRIS
aabbcc
Your satellite tracking list
Your tracking list is empty




NASA's NSSDC Master Catalog

Two Line Element Set (TLE):
1 31182U 99025BJL 18050.35013953 +.00000114 +00000-0 +87000-4 0  9998
2 31182 098.7970 090.0338 0023426 341.3054 074.7837 14.11212199558091
Source of the keplerian elements: AFSPC